St-Etienne Boutheon, France

10:43 AM CEST on May 28, 2018 (GMT +0200)
Boutheon

Weather History for LFMH - December, 2013

Change the Weather History Date:

Saturday, December 21, 2013

  Actual Average Record
Temperature  
Mean Temperature 41 °F -  
Max Temperature 55 °F 42 °F 58 °F (2015)
Min Temperature 27 °F 32 °F 21 °F (2004)
Degree Days  
Heating Degree Days 24    
Moisture  
Dew Point 36 °F    
Average Humidity 78    
Maximum Humidity 100    
Minimum Humidity 54    
Precipitation  
Precipitation 0.00 in - - ()
Sea Level Pressure  
Sea Level Pressure 30.45 in    
Wind  
Wind Speed 5 mph ()    
Max Wind Speed 20 mph    
Max Gust Speed -    
Visibility 4.0 miles    
Events Fog    
Averages and records for this station are not official NWS values.
T = Trace of Precipitation, MM = Missing Value Source: Averaged Metar Reports

Daily Weather History Graph

Daily Weather History Graph

Search for Another Location

Airport or City:

Astronomy

Dec. 21, 2013 Rise Set
Actual Time 8:19 AM CET 5:01 PM CET
Civil Twilight 7:45 AM CET 5:36 PM CET
Nautical Twilight 7:07 AM CET 6:13 PM CET
Astronomical Twilight 6:31 AM CET 6:50 PM CET
Moon 9:14 PM CET (12/21) 10:28 AM CET (12/21)
Length of Visible Light 9h 50m
Length of Day
8h 42m
Waning Gibbous, 86% of the Moon is Illuminated
Dec 21
Waning Gibbous
Dec 25
Last Quarter
Jan 1
New
Jan 8
First Quarter
Jan 16
Full

Hourly Weather History & Observations

Time (CET) Temp. Windchill Dew Point Humidity Pressure Visibility Wind Dir Wind Speed Gust Speed Precip Events Conditions
12:00 AM 31 °F - 29 °F 90% 30.61 in 2 mi Calm Calm - -   Mist
12:00 AM 30.2 °F - 28.4 °F 93% 30.54 in 1.9 mi Calm Calm - N/A   Overcast
12:30 AM 30.2 °F - 30.2 °F 100% 30.54 in 0.3 mi Calm Calm - N/A Fog Light Freezing Fog
1:00 AM 31 °F - 30 °F 93% 30.61 in 2 mi Calm Calm - -   Mist
1:00 AM 32.0 °F - 30.2 °F 93% 30.54 in - Calm Calm - N/A   Overcast
1:30 AM 32.0 °F - 30.2 °F 93% 30.51 in 0.2 mi SSE 2.3 mph - N/A Fog Light Freezing Fog
2:00 AM 31 °F - 29 °F 92% 30.60 in 3 mi SSE 3.5 mph - -   Mist
2:00 AM 30.2 °F 26.7 °F 30.2 °F 100% 30.51 in 3.1 mi SSE 3.5 mph - N/A   Mist
2:30 AM 30.2 °F 25.4 °F 28.4 °F 93% 30.51 in 3.1 mi SSE 4.6 mph - N/A   Mist
3:00 AM 30 °F - 28 °F 91% 30.61 in 4 mi SSE 3.5 mph - -   Clear
3:00 AM 30.2 °F 26.7 °F 28.4 °F 93% 30.51 in 3.7 mi SSE 3.5 mph - N/A   Partly Cloudy
3:30 AM 28.4 °F 24.6 °F 26.6 °F 93% 30.51 in 0.7 mi SSE 3.5 mph - N/A   Mist
4:00 AM 28 °F - 27 °F 92% 30.61 in 0 mi SSE 1.2 mph - - Fog Fog
4:00 AM 28.4 °F - 26.6 °F 93% 30.51 in 0.1 mi SSE 1.2 mph - N/A Fog Light Freezing Fog
4:30 AM 28.4 °F - 28.4 °F 100% 30.51 in - SSE 2.3 mph - N/A   Partly Cloudy
5:00 AM 28 °F - 27 °F 94% 30.61 in 2 mi SSE 3.5 mph - -   Mist
5:00 AM 28.4 °F 24.6 °F 26.6 °F 93% 30.51 in - SSE 3.5 mph - N/A   Partly Cloudy
5:30 AM 28.4 °F - 26.6 °F 93% 30.51 in 0.1 mi SSE 2.3 mph - N/A Fog Light Freezing Fog
6:00 AM 28 °F - 27 °F 95% 30.61 in 0 mi SSE 1.2 mph - - Fog Heavy Fog
6:00 AM 28.4 °F - 26.6 °F 93% 30.51 in 0.2 mi SSE 1.2 mph - N/A Fog Fog
6:30 AM 28.4 °F - 28.4 °F 100% 30.51 in 2.2 mi SSE 1.2 mph - N/A   Mostly Cloudy
7:00 AM 30 °F - 29 °F 92% 30.60 in 3 mi Calm Calm - -   Mist
7:00 AM 30.2 °F - 28.4 °F 93% 30.51 in 2.8 mi Calm Calm - N/A   Mostly Cloudy
7:30 AM 30.2 °F - 30.2 °F 100% 30.51 in 3.1 mi Calm Calm - N/A   Mostly Cloudy
8:00 AM 32 °F - 31 °F 96% 30.58 in 4 mi Calm Calm - -   Mostly Cloudy
8:00 AM 32.0 °F - 30.2 °F 93% 30.51 in 3.7 mi Calm Calm - N/A   Mostly Cloudy
8:30 AM 33.8 °F - 33.8 °F 100% 30.51 in 6.2 mi Variable 1.2 mph - N/A   Mostly Cloudy
9:00 AM 36 °F - 33 °F 87% 30.57 in 6 mi SE 6.9 mph - -   Mostly Cloudy
9:00 AM 35.6 °F 30.7 °F 33.8 °F 93% 30.51 in 6.2 mi SE 5.8 mph - N/A   Mostly Cloudy
9:30 AM 37.4 °F 30.8 °F 33.8 °F 87% 30.48 in 6.2 mi SE 9.2 mph - N/A   Mostly Cloudy
10:00 AM 38 °F - 34 °F 80% 30.55 in 22 mi SSE 9.2 mph - -   Clear
10:00 AM 37.4 °F 30.8 °F 33.8 °F 87% 30.48 in 6.2 mi SSE 9.2 mph - N/A   Mostly Cloudy
10:30 AM 39.2 °F 32.0 °F 33.8 °F 81% 30.48 in - SE 11.5 mph - N/A   Clear
11:00 AM 43 °F - 36 °F 67% 30.52 in 25 mi SSE 8.1 mph - -   Partly Cloudy
11:00 AM 42.8 °F 38.0 °F 35.6 °F 76% 30.48 in - SSE 8.1 mph - N/A   Clear
11:30 AM 42.8 °F 38.6 °F 35.6 °F 76% 30.45 in - SE 6.9 mph - N/A   Clear
12:00 PM 45 °F - 37 °F 66% 30.48 in 25 mi SE 9.2 mph - -   Mostly Cloudy
12:00 PM 44.6 °F 40.2 °F 37.4 °F 76% 30.45 in - SE 8.1 mph - N/A   Clear
12:30 PM 46.4 °F 41.5 °F 37.4 °F 71% 30.42 in - SSE 10.4 mph - N/A   Clear
1:00 PM 49 °F - 40 °F 62% 30.44 in 25 mi SSE 11.5 mph - -   Mostly Cloudy
1:00 PM 48.2 °F - 39.2 °F 71% 30.42 in - SSE 11.5 mph - N/A   Clear
1:30 PM 50.0 °F - 41.0 °F 71% 30.39 in - SSW 5.8 mph - N/A   Clear
2:00 PM 54 °F - 44 °F 58% 30.39 in 25 mi SSE 11.5 mph - -   Partly Cloudy
2:00 PM 53.6 °F - 42.8 °F 67% 30.39 in - SSE 11.5 mph - N/A   Clear
2:30 PM 55.4 °F - 44.6 °F 67% 30.36 in - SSE 17.3 mph - N/A   Clear
3:00 PM 55 °F - 44 °F 56% 30.37 in 25 mi SSE 19.6 mph - -   Scattered Clouds
3:00 PM 55.4 °F - 42.8 °F 63% 30.36 in - SSE 19.6 mph - N/A   Clear
3:30 PM 55.4 °F - 44.6 °F 67% 30.36 in - SSE 18.4 mph - N/A   Clear
4:00 PM 54 °F - 43 °F 58% 30.37 in 25 mi South 15.0 mph - -   Scattered Clouds
4:00 PM 53.6 °F - 42.8 °F 67% 30.36 in 6.2 mi South 15.0 mph - N/A   Scattered Clouds
4:30 PM 53.6 °F - 42.8 °F 67% 30.33 in 6.2 mi SSE 15.0 mph - N/A   Scattered Clouds
5:00 PM 53 °F - 43 °F 59% 30.36 in 25 mi South 11.5 mph - -   Scattered Clouds
5:00 PM 53.6 °F - 42.8 °F 67% 30.33 in 6.2 mi South 12.7 mph - N/A   Scattered Clouds
5:30 PM 51.8 °F - 42.8 °F 71% 30.33 in 6.2 mi South 11.5 mph - N/A   Scattered Clouds
6:00 PM 53 °F - 43 °F 59% 30.37 in 25 mi South 11.5 mph - -   Partly Cloudy
6:00 PM 53.6 °F - 42.8 °F 67% 30.36 in 6.2 mi South 10.4 mph - N/A   Scattered Clouds
6:30 PM 53.6 °F - 42.8 °F 67% 30.36 in 6.2 mi South 10.4 mph - N/A   Overcast
7:00 PM 53 °F - 42 °F 58% 30.37 in 37 mi South 11.5 mph - -   Clear
7:00 PM 53.6 °F - 42.8 °F 67% 30.36 in 6.2 mi South 11.5 mph - N/A   Overcast
7:30 PM 53.6 °F - 42.8 °F 67% 30.36 in 6.2 mi South 12.7 mph - N/A   Overcast
8:00 PM 53 °F - 42 °F 56% 30.38 in 37 mi South 13.8 mph - -   Clear
8:00 PM 53.6 °F - 42.8 °F 67% 30.36 in 6.2 mi South 13.8 mph - N/A   Overcast
8:30 PM 51.8 °F - 41.0 °F 67% 30.36 in 6.2 mi South 12.7 mph - N/A   Overcast
9:00 PM 52 °F - 40 °F 54% 30.38 in 37 mi South 10.4 mph - -   Clear
9:00 PM 51.8 °F - 41.0 °F 67% 30.36 in 6.2 mi South 10.4 mph - N/A   Overcast
9:30 PM 51.8 °F - 41.0 °F 67% 30.36 in 6.2 mi SSE 9.2 mph - N/A   Overcast
10:00 PM 51 °F - 40 °F 57% 30.37 in 34 mi SSE 9.2 mph - -   Clear
10:00 PM 51.8 °F - 41.0 °F 67% 30.36 in 6.2 mi SSE 9.2 mph - N/A   Mostly Cloudy
10:30 PM 51.8 °F - 41.0 °F 67% 30.36 in 6.2 mi SSE 6.9 mph - N/A   Overcast
11:00 PM 51 °F - 41 °F 59% 30.37 in 37 mi SSE 11.5 mph - -   Clear
11:00 PM 51.8 °F - 41.0 °F 67% 30.33 in 6.2 mi SSE 11.5 mph - N/A   Unknown
11:30 PM 50.0 °F - 42.8 °F 76% 30.33 in 6.2 mi South 8.1 mph - N/A   Unknown